,,,PA_Meas_PMT16A,,PR_Meas_QMR101_102,,RH_Meas_QMH101,,SR_Meas_QMS101,,TA_Meas_QMH101,,GenWind,,GenWind,
date,time,status,PA,status,PR,status,RH,status,SR,status,TA,status,DirAvg,status,SpdAvg,
2011-03-08, 00:00:04,VALID,1000.29,VALID,0,VALID,90.2203,VALID,0,VALID,24.2495,VALID,54,VALID,0.225391,
2011-03-08, 00:01:04,VALID,1000.24,VALID,0,VALID,90.0753,VALID,0,VALID,24.2281,VALID,54,VALID,0,
2011-03-08, 00:02:04,VALID,1000.21,VALID,0,VALID,89.9761,VALID,0,VALID,24.1909,VALID,54,VALID,0,
2011-03-08, 00:03:04,VALID,1000.18,VALID,0,VALID,89.9609,VALID,0,VALID,24.1909,VALID,54,VALID,0,
2011-03-08, 00:04:04,VALID,1000.12,VALID,0,VALID,90.06,VALID,0,VALID,24.1714,VALID,54,VALID,0,
2011-03-08, 00:05:04,VALID,1000.12,VALID,0,VALID,90.1516,VALID,0,VALID,24.15,VALID,54,VALID,0.0371094,
2011-03-08, 00:06:04,VALID,1000.09,VALID,0,VALID,90.1821,VALID,0,VALID,24.1305,VALID,54,VALID,0.00234375,
2011-03-08, 00:07:04,VALID,1000.08,VALID,0,VALID,90.2508,VALID,0,VALID,24.111,VALID,54,VALID,0,
2011-03-08, 00:08:04,VALID,1000.05,VALID,0,VALID,90.2813,VALID,0,VALID,24.111,VALID,54,VALID,0,
2011-03-08, 00:09:04,VALID,1000.02,VALID,0,VALID,90.3194,VALID,0,VALID,24.1128,VALID,54,VALID,0.0578125,
2011-03-08, 00:10:04,VALID,999.998,VALID,0,VALID,90.4339,VALID,0,VALID,24.072,VALID,54,VALID,0.437109,
2011-03-08, 00:11:04,VALID,999.991,VALID,0,VALID,90.472,VALID,0,VALID,24.111,VALID,184,VALID,0.485156,
2011-03-08, 00:12:04,VALID,999.983,VALID,0,VALID,90.3881,VALID,0,VALID,24.111,VALID,183,VALID,0.463672,
2011-03-08, 00:13:04,VALID,999.986,VALID,0,VALID,90.3271,VALID,0,VALID,24.15,VALID,182,VALID,0.40625,
2011-03-08, 00:14:04,VALID,999.984,VALID,0,VALID,90.1287,VALID,0,VALID,24.1287,VALID,162,VALID,0.791016,
2011-03-08, 00:15:04,VALID,999.98,VALID,0,VALID,90.06,VALID,0,VALID,24.1696,VALID,161,VALID,0.697656,
2011-03-08, 00:16:04,VALID,1000.02,VALID,0,VALID,89.9837,VALID,0,VALID,24.1872,VALID,154,VALID,0.737891,
2011-03-08, 00:17:04,VALID,1000.04,VALID,0,VALID,89.8464,VALID,0,VALID,24.2067,VALID,142,VALID,0.607422,
2011-03-08, 00:18:04,VALID,1000.03,VALID,0,VALID,89.6404,VALID,0,VALID,24.2086,VALID,142,VALID,0.642969,
2011-03-08, 00:19:04,VALID,1000.05,VALID,0,VALID,89.5641,VALID,0,VALID,24.1872,VALID,142,VALID,0.633984,
2011-03-08, 00:20:04,VALID,1000.05,VALID,0,VALID,89.587,VALID,0,VALID,24.2281,VALID,142,VALID,0.669531,
2011-03-08, 00:21:04,VALID,999.992,VALID,0,VALID,89.6404,VALID,0,VALID,24.2086,VALID,142,VALID,0.512109,
2011-03-08, 00:22:04,VALID,999.987,VALID,0,VALID,89.6099,VALID,0,VALID,24.2067,VALID,142,VALID,0.569141,
2011-03-08, 00:23:04,VALID,999.99,VALID,0,VALID,89.5565,VALID,0,VALID,24.1891,VALID,142,VALID,0.448438,
2011-03-08, 00:24:04,VALID,999.968,VALID,0,VALID,89.442,VALID,0,VALID,24.1287,VALID,142,VALID,0.494531,
2011-03-08, 00:25:04,VALID,999.986,VALID,0,VALID,89.5489,VALID,0,VALID,24.1287,VALID,142,VALID,0.635547,
2011-03-08, 00:26:04,VALID,999.958,VALID,0,VALID,89.6786,VALID,0,VALID,24.1305,VALID,126,VALID,0.689844,
2011-03-08, 00:27:04,VALID,999.924,VALID,0,VALID,89.7777,VALID,0.112286,VALID,24.15,VALID,124,VALID,0.543359,
2011-03-08, 00:28:04,VALID,999.942,VALID,0,VALID,89.8617,VALID,0,VALID,24.15,VALID,124,VALID,0.432422,
2011-03-08, 00:29:04,VALID,999.939,VALID,0,VALID,89.8846,VALID,0,VALID,24.1287,VALID,124,VALID,0.390234,
2011-03-08, 00:30:04,VALID,999.943,VALID,0,VALID,89.9151,VALID,0,VALID,24.1287,VALID,124,VALID,0.295703,
2011-03-08, 00:31:04,VALID,999.909,VALID,0,VALID,89.8998,VALID,0,VALID,24.1287,VALID,124,VALID,0.483203,
2011-03-08, 00:32:04,VALID,999.897,VALID,0,VALID,89.8846,VALID,0,VALID,24.1287,VALID,124,VALID,0.398828,
2011-03-08, 00:33:04,VALID,999.92,VALID,0,VALID,89.8617,VALID,0,VALID,24.1092,VALID,124,VALID,0.463672,
2011-03-08, 00:34:04,VALID,999.891,VALID,0,VALID,89.8769,VALID,0,VALID,24.0897,VALID,124,VALID,0.508594,
2011-03-08, 00:35:04,VALID,999.863,VALID,0,VALID,89.8998,VALID,0,VALID,24.111,VALID,124,VALID,0.607813,
2011-03-08, 00:36:04,VALID,999.858,VALID,0,VALID,89.8311,VALID,0.112286,VALID,24.0506,VALID,124,VALID,0.458984,
2011-03-08, 00:37:04,VALID,999.848,VALID,0,VALID,89.7854,VALID,0.112286,VALID,24.0506,VALID,124,VALID,0.515234,
2011-03-08, 00:38:04,VALID,999.835,VALID,0,VALID,89.6938,VALID,0.112286,VALID,24.0116,VALID,124,VALID,0.457422,
2011-03-08, 00:39:04,VALID,999.846,VALID,0,VALID,89.732,VALID,0,VALID,24.0329,VALID,124,VALID,0.288672,
2011-03-08, 00:40:04,VALID,999.854,VALID,0,VALID,89.9609,VALID,0,VALID,23.9921,VALID,124,VALID,0.482031,
2011-03-08, 00:41:04,VALID,999.867,VALID,0,VALID,90.2126,VALID,0,VALID,24.0311,VALID,124,VALID,0.500781,
2011-03-08, 00:42:04,VALID,999.851,VALID,0,VALID,90.3423,VALID,0.112286,VALID,24.0311,VALID,124,VALID,0.471484,
2011-03-08, 00:43:04,VALID,999.856,VALID,0,VALID,90.3805,VALID,0,VALID,24.0311,VALID,124,VALID,0.522656,
2011-03-08, 00:44:04,VALID,999.837,VALID,0,VALID,90.3347,VALID,0,VALID,24.0311,VALID,124,VALID,0.540234,
2011-03-08, 00:45:04,VALID,999.792,VALID,0,VALID,90.2966,VALID,0,VALID,24.072,VALID,124,VALID,0.482422,
2011-03-08, 00:46:04,VALID,999.794,VALID,0,VALID,90.1668,VALID,0,VALID,24.0329,VALID,124,VALID,0.491406,
2011-03-08, 00:47:04,VALID,999.766,VALID,0,VALID,90.2126,VALID,0.112286,VALID,23.9921,VALID,124,VALID,0.442187,
2011-03-08, 00:48:04,VALID,999.734,VALID,0,VALID,90.472,VALID,0,VALID,24.0525,VALID,124,VALID,0.223828,
2011-03-08, 00:49:04,VALID,999.698,VALID,0,VALID,90.6323,VALID,0.112286,VALID,24.0116,VALID,124,VALID,0.28125,
2011-03-08, 00:50:04,VALID,999.658,VALID,0,VALID,90.6933,VALID,0,VALID,23.9726,VALID,124,VALID,0.299219,
2011-03-08, 00:51:04,VALID,999.658,VALID,0,VALID,90.6857,VALID,0.112286,VALID,23.9336,VALID,124,VALID,0.424219,
2011-03-08, 00:52:04,VALID,999.667,VALID,0,VALID,90.6933,VALID,0,VALID,23.875,VALID,124,VALID,0.467969,
2011-03-08, 00:53:04,VALID,999.651,VALID,0,VALID,90.7925,VALID,0,VALID,23.8555,VALID,124,VALID,0.480078,
2011-03-08, 00:54:04,VALID,999.667,VALID,0,VALID,90.8993,VALID,0,VALID,23.8165,VALID,124,VALID,0.488672,
2011-03-08, 00:55:04,VALID,999.643,VALID,0,VALID,91.0366,VALID,0,VALID,23.8183,VALID,124,VALID,0.414063,
2011-03-08, 00:56:04,VALID,999.66,VALID,0,VALID,91.1129,VALID,0.112286,VALID,23.7775,VALID,124,VALID,0.336719,
2011-03-08, 00:57:04,VALID,999.667,VALID,0,VALID,91.2274,VALID,0,VALID,23.7579,VALID,124,VALID,0.308984,
2011-03-08, 00:58:04,VALID,999.688,VALID,0,VALID,91.2808,VALID,0,VALID,23.7811,VALID,124,VALID,0.189844,
2011-03-08, 00:59:04,VALID,999.68,VALID,0,VALID,91.38,VALID,0,VALID,23.7402,VALID,124,VALID,0.025,
2011-03-08, 01:00:04,VALID,999.672,VALID,0,VALID,91.4257,VALID,0,VALID,23.7402,VALID,124,VALID,0,
2011-03-08, 01:01:04,VALID,999.683,VALID,0,VALID,91.4868,VALID,0,VALID,23.742,VALID,124,VALID,0,
2011-03-08, 01:02:04,VALID,999.665,VALID,0,VALID,91.5249,VALID,0,VALID,23.7225,VALID,124,VALID,0,
2011-03-08, 01:03:04,VALID,999.665,VALID,0,VALID,91.5478,VALID,0,VALID,23.6817,VALID,124,VALID,0,
2011-03-08, 01:04:04,VALID,999.652,VALID,0,VALID,91.6317,VALID,0,VALID,23.703,VALID,124,VALID,0,
2011-03-08, 01:05:04,VALID,999.669,VALID,0,VALID,91.6775,VALID,0,VALID,23.6817,VALID,124,VALID,0,
2011-03-08, 01:06:04,VALID,999.634,VALID,0,VALID,91.7157,VALID,0,VALID,23.6445,VALID,124,VALID,0.192188,
2011-03-08, 01:07:04,VALID,999.621,VALID,0,VALID,91.8148,VALID,0,VALID,23.6622,VALID,124,VALID,0.614453,
2011-03-08, 01:08:04,VALID,999.645,VALID,0,VALID,91.8835,VALID,0,VALID,23.703,VALID,124,VALID,0.467187,
2011-03-08, 01:09:04,VALID,999.63,VALID,0,VALID,91.9369,VALID,0,VALID,23.703,VALID,124,VALID,0.258984,
2011-03-08, 01:10:04,VALID,999.653,VALID,0,VALID,91.9598,VALID,0,VALID,23.703,VALID,124,VALID,0.241016,
2011-03-08, 01:11:04,VALID,999.66,VALID,0,VALID,91.9751,VALID,0,VALID,23.6835,VALID,124,VALID,0.136719,
2011-03-08, 01:12:04,VALID,999.69,VALID,0,VALID,91.9674,VALID,0,VALID,23.6835,VALID,124,VALID,0,
2011-03-08, 01:13:04,VALID,999.654,VALID,0,VALID,91.9827,VALID,0,VALID,23.6835,VALID,124,VALID,0,
2011-03-08, 01:14:04,VALID,999.697,VALID,0,VALID,91.9674,VALID,0,VALID,23.6445,VALID,124,VALID,0,
2011-03-08, 01:15:04,VALID,999.718,VALID,0,VALID,91.9522,VALID,0,VALID,23.6054,VALID,124,VALID,0,
2011-03-08, 01:16:04,VALID,999.733,VALID,0,VALID,91.9598,VALID,0,VALID,23.5841,VALID,124,VALID,0,
2011-03-08, 01:17:04,VALID,999.709,VALID,0,VALID,91.9522,VALID,0,VALID,23.5841,VALID,124,VALID,0.291406,
2011-03-08, 01:18:04,VALID,999.715,VALID,0,VALID,91.9751,VALID,0,VALID,23.5859,VALID,124,VALID,0.19375,
2011-03-08, 01:19:04,VALID,999.727,VALID,0,VALID,92.0132,VALID,0,VALID,23.6054,VALID,124,VALID,0.34375,
2011-03-08, 01:20:04,VALID,999.725,VALID,0,VALID,92.0132,VALID,0,VALID,23.5859,VALID,124,VALID,0.521484,
2011-03-08, 01:21:04,VALID,999.729,VALID,0,VALID,92.0056,VALID,0,VALID,23.5664,VALID,124,VALID,0.574219,
2011-03-08, 01:22:04,VALID,999.743,VALID,0,VALID,92.0209,VALID,0,VALID,23.6054,VALID,124,VALID,0.475781,
2011-03-08, 01:23:04,VALID,999.717,VALID,0,VALID,91.9751,VALID,0,VALID,23.5646,VALID,124,VALID,0.321484,
2011-03-08, 01:24:04,VALID,999.716,VALID,0,VALID,91.8683,VALID,0,VALID,23.5274,VALID,124,VALID,0.505859,
2011-03-08, 01:25:04,VALID,999.716,VALID,0,VALID,91.8072,VALID,0,VALID,23.5274,VALID,150,VALID,0.593359,
2011-03-08, 01:26:04,VALID,999.713,VALID,0,VALID,91.7004,VALID,0,VALID,23.4866,VALID,149,VALID,0.898828,
2011-03-08, 01:27:04,VALID,999.756,VALID,0,VALID,91.6699,VALID,0,VALID,23.5451,VALID,138,VALID,0.675,
2011-03-08, 01:28:04,VALID,999.763,VALID,0,VALID,91.6165,VALID,0,VALID,23.5628,VALID,138,VALID,0.655859,
2011-03-08, 01:29:04,VALID,999.744,VALID,0,VALID,91.5326,VALID,0,VALID,23.6036,VALID,138,VALID,0.676562,
2011-03-08, 01:30:04,VALID,999.756,VALID,0,VALID,91.4868,VALID,0,VALID,23.6019,VALID,138,VALID,0.629687,
2011-03-08, 01:31:04,VALID,999.724,VALID,0,VALID,91.3723,VALID,0,VALID,23.6232,VALID,138,VALID,0.694922,
2011-03-08, 01:32:04,VALID,999.698,VALID,0,VALID,91.2045,VALID,0,VALID,23.6232,VALID,138,VALID,0.746484,
2011-03-08, 01:33:04,VALID,999.688,VALID,0,VALID,91.0443,VALID,0,VALID,23.6232,VALID,138,VALID,0.766406,
2011-03-08, 01:34:04,VALID,999.687,VALID,0,VALID,90.884,VALID,0,VALID,23.6427,VALID,138,VALID,0.926172,
2011-03-08, 01:35:04,VALID,999.703,VALID,0,VALID,90.678,VALID,0,VALID,23.6409,VALID,138,VALID,0.853516,
2011-03-08, 01:36:04,VALID,999.717,VALID,0,VALID,90.4491,VALID,0,VALID,23.6622,VALID,138,VALID,0.901172,
2011-03-08, 01:37:04,VALID,999.715,VALID,0,VALID,90.1897,VALID,0,VALID,23.6622,VALID,138,VALID,0.869922,
2011-03-08, 01:38:04,VALID,999.738,VALID,0,VALID,90.1287,VALID,0,VALID,23.6799,VALID,138,VALID,0.824609,
2011-03-08, 01:39:04,VALID,999.736,VALID,0,VALID,89.9074,VALID,0,VALID,23.6604,VALID,138,VALID,0.701563,
2011-03-08, 01:40:04,VALID,999.718,VALID,0,VALID,89.8388,VALID,0,VALID,23.6622,VALID,138,VALID,0.7875,
2011-03-08, 01:41:04,VALID,999.74,VALID,0,VALID,89.7472,VALID,0,VALID,23.6427,VALID,138,VALID,0.751953,
2011-03-08, 01:42:04,VALID,999.724,VALID,0,VALID,89.7167,VALID,0,VALID,23.6214,VALID,138,VALID,0.879297,
2011-03-08, 01:43:04,VALID,999.734,VALID,0,VALID,89.6328,VALID,0,VALID,23.6019,VALID,138,VALID,0.809766,
2011-03-08, 01:44:04,VALID,999.74,VALID,0,VALID,89.6023,VALID,0,VALID,23.6036,VALID,123,VALID,0.814844,
2011-03-08, 01:45:04,VALID,999.744,VALID,0,VALID,89.4878,VALID,0,VALID,23.5646,VALID,123,VALID,0.705078,
2011-03-08, 01:46:04,VALID,999.743,VALID,0,VALID,89.4497,VALID,0,VALID,23.5256,VALID,124,VALID,0.768359,
2011-03-08, 01:47:04,VALID,999.747,VALID,0,VALID,89.5412,VALID,0,VALID,23.4848,VALID,124,VALID,0.519531,
2011-03-08, 01:48:04,VALID,999.743,VALID,0,VALID,89.587,VALID,0,VALID,23.5061,VALID,124,VALID,0.416016,
2011-03-08, 01:49:04,VALID,999.717,VALID,0,VALID,89.6099,VALID,0,VALID,23.4866,VALID,124,VALID,0.332422,
2011-03-08, 01:50:04,VALID,999.729,VALID,0,VALID,89.6786,VALID,0,VALID,23.4653,VALID,124,VALID,0.316797,
2011-03-08, 01:51:04,VALID,999.756,VALID,0,VALID,89.7091,VALID,0,VALID,23.4866,VALID,124,VALID,0.184375,
2011-03-08, 01:52:04,VALID,999.753,VALID,0,VALID,89.8159,VALID,0,VALID,23.4866,VALID,124,VALID,0.314453,
2011-03-08, 01:53:04,VALID,999.773,VALID,0,VALID,89.9456,VALID,0,VALID,23.4653,VALID,124,VALID,0.250391,
2011-03-08, 01:54:04,VALID,999.75,VALID,0,VALID,89.9685,VALID,0.112286,VALID,23.4671,VALID,124,VALID,0.602344,
2011-03-08, 01:55:04,VALID,999.766,VALID,0,VALID,89.9532,VALID,0,VALID,23.4671,VALID,126,VALID,0.745703,
2011-03-08, 01:56:04,VALID,999.768,VALID,0,VALID,89.9151,VALID,0,VALID,23.4458,VALID,127,VALID,1.08516,
2011-03-08, 01:57:04,VALID,999.77,VALID,0,VALID,89.8617,VALID,0,VALID,23.4458,VALID,134,VALID,1.09375,
2011-03-08, 01:58:04,VALID,999.738,VALID,0,VALID,89.6404,VALID,0,VALID,23.5079,VALID,133,VALID,0.823438,
2011-03-08, 01:59:04,VALID,999.731,VALID,0,VALID,89.4268,VALID,0,VALID,23.5274,VALID,133,VALID,0.714063,
2011-03-08, 02:00:04,VALID,999.747,VALID,0,VALID,89.2971,VALID,0,VALID,23.5451,VALID,133,VALID,0.833594,
2011-03-08, 02:01:04,VALID,999.766,VALID,0,VALID,89.2437,VALID,0,VALID,23.5646,VALID,133,VALID,0.340625,
2011-03-08, 02:02:04,VALID,999.76,VALID,0,VALID,89.2666,VALID,0,VALID,23.5859,VALID,133,VALID,0.248047,
2011-03-08, 02:03:04,VALID,999.766,VALID,0,VALID,89.2666,VALID,0,VALID,23.5859,VALID,133,VALID,0.38125,
2011-03-08, 02:04:04,VALID,999.754,VALID,0,VALID,89.3657,VALID,0,VALID,23.5859,VALID,133,VALID,0.505469,
2011-03-08, 02:05:04,VALID,999.779,VALID,0,VALID,89.4039,VALID,0,VALID,23.5859,VALID,66,VALID,0.918359,
2011-03-08, 02:06:04,VALID,999.761,VALID,0,VALID,89.3428,VALID,0,VALID,23.5664,VALID,67,VALID,0.883594,
2011-03-08, 02:07:04,VALID,999.751,VALID,0,VALID,89.3428,VALID,0,VALID,23.5664,VALID,72,VALID,0.729297,
2011-03-08, 02:08:04,VALID,999.757,VALID,0,VALID,89.3505,VALID,0,VALID,23.5664,VALID,72,VALID,0.423438,
2011-03-08, 02:09:04,VALID,999.775,VALID,0,VALID,89.381,VALID,0,VALID,23.5664,VALID,72,VALID,0.432031,
2011-03-08, 02:10:04,VALID,999.748,VALID,0,VALID,89.4115,VALID,0,VALID,23.5469,VALID,72,VALID,0.358203,
2011-03-08, 02:11:04,VALID,999.718,VALID,0,VALID,89.4191,VALID,0,VALID,23.5256,VALID,72,VALID,0.328125,
2011-03-08, 02:12:04,VALID,999.721,VALID,0,VALID,89.4191,VALID,0,VALID,23.5061,VALID,72,VALID,0.255859,
2011-03-08, 02:13:04,VALID,999.713,VALID,0,VALID,89.4039,VALID,0,VALID,23.4848,VALID,72,VALID,0.427734,
2011-03-08, 02:14:04,VALID,999.698,VALID,0,VALID,89.4191,VALID,0,VALID,23.4653,VALID,72,VALID,0.429297,
2011-03-08, 02:15:04,VALID,999.69,VALID,0,VALID,89.5565,VALID,0,VALID,23.5061,VALID,72,VALID,0.439844,
2011-03-08, 02:16:04,VALID,999.681,VALID,0,VALID,89.8235,VALID,0,VALID,23.5256,VALID,72,VALID,0.371484,
2011-03-08, 02:17:04,VALID,999.704,VALID,0,VALID,90.0219,VALID,0,VALID,23.5256,VALID,72,VALID,0.101563,
2011-03-08, 02:18:04,VALID,999.678,VALID,0,VALID,89.9914,VALID,0,VALID,23.5256,VALID,72,VALID,0.0105469,
2011-03-08, 02:19:04,VALID,999.669,VALID,0,VALID,90.0371,VALID,0,VALID,23.4848,VALID,72,VALID,0,
2011-03-08, 02:20:04,VALID,999.631,VALID,0,VALID,90.1363,VALID,0,VALID,23.5061,VALID,72,VALID,0,
2011-03-08, 02:21:04,VALID,999.654,VALID,0,VALID,90.1058,VALID,0,VALID,23.5061,VALID,72,VALID,0,
2011-03-08, 02:22:04,VALID,999.648,VALID,0,VALID,89.9456,VALID,0,VALID,23.4671,VALID,72,VALID,0.371875,
2011-03-08, 02:23:04,VALID,999.64,VALID,0,VALID,89.6328,VALID,0,VALID,23.4475,VALID,72,VALID,0.372266,
2011-03-08, 02:24:04,VALID,999.608,VALID,0,VALID,89.3886,VALID,0,VALID,23.4475,VALID,72,VALID,0.514063,
2011-03-08, 02:25:04,VALID,999.601,VALID,0,VALID,89.1445,VALID,0,VALID,23.4671,VALID,72,VALID,0.348047,
2011-03-08, 02:26:04,VALID,999.606,VALID,0,VALID,88.9309,VALID,0,VALID,23.4671,VALID,72,VALID,0.28125,
2011-03-08, 02:27:04,VALID,999.603,VALID,0,VALID,88.7554,VALID,0,VALID,23.4653,VALID,154,VALID,0.538281,
2011-03-08, 02:28:04,VALID,999.574,VALID,0,VALID,88.7172,VALID,0,VALID,23.5274,VALID,168,VALID,0.648047,
2011-03-08, 02:29:04,VALID,999.603,VALID,0,VALID,88.5723,VALID,0,VALID,23.5469,VALID,168,VALID,0.446484,
2011-03-08, 02:30:04,VALID,999.6,VALID,0,VALID,88.5646,VALID,0,VALID,23.5859,VALID,168,VALID,0.514063,
2011-03-08, 02:31:04,VALID,999.579,VALID,0,VALID,88.3892,VALID,0,VALID,23.6054,VALID,154,VALID,0.694141,
2011-03-08, 02:32:04,VALID,999.56,VALID,0,VALID,88.2823,VALID,0,VALID,23.6054,VALID,130,VALID,0.569141,
2011-03-08, 02:33:04,VALID,999.542,VALID,0,VALID,88.1374,VALID,0,VALID,23.6054,VALID,126,VALID,0.666406,
2011-03-08, 02:34:04,VALID,999.545,VALID,0,VALID,88.0763,VALID,0,VALID,23.6054,VALID,126,VALID,0.637109,
2011-03-08, 02:35:04,VALID,999.56,VALID,0,VALID,88.351,VALID,0,VALID,23.5841,VALID,126,VALID,0.502344,
2011-03-08, 02:36:04,VALID,999.564,VALID,0,VALID,88.6104,VALID,0,VALID,23.5859,VALID,126,VALID,0.328906,
2011-03-08, 02:37:04,VALID,999.564,VALID,0,VALID,88.6638,VALID,0,VALID,23.5859,VALID,126,VALID,0.292188,
2011-03-08, 02:38:04,VALID,999.592,VALID,0,VALID,88.7249,VALID,0,VALID,23.5646,VALID,126,VALID,0.291406,
2011-03-08, 02:39:04,VALID,999.574,VALID,0,VALID,88.8393,VALID,0,VALID,23.5859,VALID,126,VALID,0.160547,
2011-03-08, 02:40:04,VALID,999.593,VALID,0,VALID,88.9156,VALID,0,VALID,23.5859,VALID,126,VALID,0.412891,
2011-03-08, 02:41:04,VALID,999.6,VALID,0,VALID,88.8774,VALID,0,VALID,23.5859,VALID,86,VALID,0.905469,
2011-03-08, 02:42:04,VALID,999.603,VALID,0,VALID,88.6486,VALID,0,VALID,23.6054,VALID,85,VALID,0.724609,
2011-03-08, 02:43:04,VALID,999.627,VALID,0,VALID,88.5875,VALID,0,VALID,23.5646,VALID,89,VALID,0.872266,
2011-03-08, 02:44:04,VALID,999.624,VALID,0,VALID,88.5189,VALID,0,VALID,23.5646,VALID,96,VALID,0.984375,
2011-03-08, 02:45:04,VALID,999.643,VALID,0,VALID,88.3968,VALID,0,VALID,23.5664,VALID,99,VALID,0.954687,
2011-03-08, 02:46:04,VALID,999.648,VALID,0,VALID,88.4349,VALID,0,VALID,23.5451,VALID,99,VALID,0.869922,
2011-03-08, 02:47:04,VALID,999.674,VALID,0,VALID,88.5036,VALID,0,VALID,23.5274,VALID,99,VALID,0.594531,
2011-03-08, 02:48:04,VALID,999.681,VALID,0,VALID,88.5723,VALID,0,VALID,23.4866,VALID,99,VALID,0.303125,
2011-03-08, 02:49:04,VALID,999.708,VALID,0,VALID,88.702,VALID,0,VALID,23.4671,VALID,99,VALID,0.283984,
2011-03-08, 02:50:04,VALID,999.694,VALID,0,VALID,88.824,VALID,0,VALID,23.428,VALID,99,VALID,0.254297,
2011-03-08, 02:51:04,VALID,999.705,VALID,0,VALID,89.0453,VALID,0,VALID,23.4103,VALID,99,VALID,0.360547,
2011-03-08, 02:52:04,VALID,999.714,VALID,0,VALID,89.2208,VALID,0,VALID,23.3695,VALID,99,VALID,0.241406,
2011-03-08, 02:53:04,VALID,999.743,VALID,0,VALID,89.3657,VALID,0,VALID,23.3713,VALID,99,VALID,0.216406,
2011-03-08, 02:54:04,VALID,999.726,VALID,0,VALID,89.5336,VALID,0,VALID,23.311,VALID,99,VALID,0.343359,
2011-03-08, 02:55:04,VALID,999.698,VALID,0,VALID,89.7243,VALID,0,VALID,23.2915,VALID,99,VALID,0.333594,
2011-03-08, 02:56:04,VALID,999.704,VALID,0,VALID,89.8922,VALID,0,VALID,23.2932,VALID,99,VALID,0.453906,
2011-03-08, 02:57:04,VALID,999.728,VALID,0,VALID,90.0066,VALID,0,VALID,23.2737,VALID,99,VALID,0.308984,
2011-03-08, 02:58:04,VALID,999.734,VALID,0,VALID,90.1592,VALID,0,VALID,23.2329,VALID,99,VALID,0.301562,
2011-03-08, 02:59:04,VALID,999.678,VALID,0,VALID,90.2966,VALID,0,VALID,23.2329,VALID,99,VALID,0.174219,
2011-03-08, 03:00:04,VALID,999.681,VALID,0,VALID,90.411,VALID,0,VALID,23.2329,VALID,99,VALID,0.243359,
2011-03-08, 03:01:04,VALID,999.665,VALID,0,VALID,90.5483,VALID,0,VALID,23.2134,VALID,99,VALID,0.353906,
2011-03-08, 03:02:04,VALID,999.647,VALID,0,VALID,90.6399,VALID,0,VALID,23.1921,VALID,99,VALID,0.415625,
2011-03-08, 03:03:04,VALID,999.642,VALID,0,VALID,90.7849,VALID,0,VALID,23.2117,VALID,99,VALID,0.632422,
2011-03-08, 03:04:04,VALID,999.624,VALID,0,VALID,90.9451,VALID,0.112286,VALID,23.2524,VALID,99,VALID,0.6125,
2011-03-08, 03:05:04,VALID,999.657,VALID,0,VALID,91.0748,VALID,0.112286,VALID,23.2915,VALID,99,VALID,0.572266,
2011-03-08, 03:06:04,VALID,999.642,VALID,0,VALID,91.1434,VALID,0,VALID,23.311,VALID,99,VALID,0.590234,
2011-03-08, 03:07:04,VALID,999.642,VALID,0,VALID,91.1587,VALID,0,VALID,23.2897,VALID,99,VALID,0.516016,
2011-03-08, 03:08:04,VALID,999.628,VALID,0,VALID,91.1053,VALID,0,VALID,23.2915,VALID,99,VALID,0.555469,
2011-03-08, 03:09:04,VALID,999.65,VALID,0,VALID,91.0443,VALID,0.112286,VALID,23.2702,VALID,99,VALID,0.607031,
2011-03-08, 03:10:04,VALID,999.602,VALID,0,VALID,91.0366,VALID,0,VALID,23.2507,VALID,69,VALID,0.742969,
2011-03-08, 03:11:04,VALID,999.602,VALID,0,VALID,91.0519,VALID,0.112286,VALID,23.2507,VALID,60,VALID,0.655469,
2011-03-08, 03:12:04,VALID,999.579,VALID,0,VALID,91.0824,VALID,0,VALID,23.2524,VALID,60,VALID,0.596875,
2011-03-08, 03:13:04,VALID,999.577,VALID,0,VALID,91.09,VALID,0,VALID,23.2329,VALID,60,VALID,0.598437,
2011-03-08, 03:14:04,VALID,999.585,VALID,0,VALID,91.1282,VALID,0,VALID,23.2134,VALID,60,VALID,0.555078,
2011-03-08, 03:15:04,VALID,999.601,VALID,0,VALID,91.1587,VALID,0,VALID,23.1939,VALID,60,VALID,0.556641,
2011-03-08, 03:16:04,VALID,999.608,VALID,0,VALID,91.1816,VALID,0,VALID,23.1957,VALID,60,VALID,0.628516,
2011-03-08, 03:17:04,VALID,999.607,VALID,0,VALID,91.2503,VALID,0,VALID,23.1744,VALID,60,VALID,0.650781,
2011-03-08, 03:18:04,VALID,999.572,VALID,0,VALID,91.3952,VALID,0,VALID,23.1939,VALID,60,VALID,0.775,
2011-03-08, 03:19:04,VALID,999.58,VALID,0,VALID,91.502,VALID,0,VALID,23.2134,VALID,60,VALID,0.816406,
2011-03-08, 03:20:04,VALID,999.564,VALID,0,VALID,91.5478,VALID,0,VALID,23.1939,VALID,60,VALID,0.997656,
2011-03-08, 03:21:04,VALID,999.584,VALID,0,VALID,91.5707,VALID,0,VALID,23.1939,VALID,60,VALID,0.991016,
2011-03-08, 03:22:04,VALID,999.566,VALID,0,VALID,91.6088,VALID,0,VALID,23.1939,VALID,60,VALID,0.970703,
2011-03-08, 03:23:04,VALID,999.598,VALID,0,VALID,91.6546,VALID,0,VALID,23.1939,VALID,60,VALID,0.811328,
2011-03-08, 03:24:04,VALID,999.601,VALID,0,VALID,91.6928,VALID,0,VALID,23.1744,VALID,60,VALID,0.724219,
2011-03-08, 03:25:04,VALID,999.577,VALID,0,VALID,91.6775,VALID,0,VALID,23.1762,VALID,60,VALID,0.495703,
2011-03-08, 03:26:04,VALID,999.581,VALID,0,VALID,91.6699,VALID,0,VALID,23.1549,VALID,60,VALID,0.398828,
2011-03-08, 03:27:04,VALID,999.587,VALID,0,VALID,91.6851,VALID,0,VALID,23.1354,VALID,60,VALID,0.461328,
2011-03-08, 03:28:04,VALID,999.581,VALID,0,VALID,91.6699,VALID,0,VALID,23.1336,VALID,60,VALID,0.476172,
2011-03-08, 03:29:04,VALID,999.583,VALID,0,VALID,91.6775,VALID,0,VALID,23.1141,VALID,60,VALID,0.680078,
2011-03-08, 03:30:04,VALID,999.531,VALID,0,VALID,91.6928,VALID,0,VALID,23.1354,VALID,60,VALID,0.592188,
2011-03-08, 03:31:04,VALID,999.506,VALID,0,VALID,91.7233,VALID,0.112286,VALID,23.0946,VALID,60,VALID,0.498047,
2011-03-08, 03:32:04,VALID,999.509,VALID,0,VALID,91.7538,VALID,0,VALID,23.1159,VALID,60,VALID,0.329297,
2011-03-08, 03:33:04,VALID,999.53,VALID,0,VALID,91.7843,VALID,0.112286,VALID,23.0946,VALID,60,VALID,0.241406,
2011-03-08, 03:34:04,VALID,999.489,VALID,0,VALID,91.7614,VALID,0,VALID,23.0769,VALID,60,VALID,0.186328,
2011-03-08, 03:35:04,VALID,999.513,VALID,0,VALID,91.7767,VALID,0.112286,VALID,23.0556,VALID,60,VALID,0.468359,
2011-03-08, 03:36:04,VALID,999.489,VALID,0,VALID,91.7843,VALID,0.112286,VALID,23.0556,VALID,84,VALID,0.750781,
2011-03-08, 03:37:04,VALID,999.462,VALID,0,VALID,91.8454,VALID,0.112286,VALID,23.0556,VALID,106,VALID,0.757422,
2011-03-08, 03:38:04,VALID,999.459,VALID,0,VALID,91.8454,VALID,0,VALID,23.0361,VALID,106,VALID,0.573828,
2011-03-08, 03:39:04,VALID,999.447,VALID,0,VALID,91.8911,VALID,0,VALID,23.0556,VALID,106,VALID,0.450781,
2011-03-08, 03:40:04,VALID,999.442,VALID,0,VALID,91.8911,VALID,0.112286,VALID,23.0556,VALID,106,VALID,0.258984,
2011-03-08, 03:41:04,VALID,999.479,VALID,0,VALID,91.9293,VALID,0,VALID,23.0556,VALID,106,VALID,0.256641,
2011-03-08, 03:42:04,VALID,999.504,VALID,0,VALID,91.9598,VALID,0.112286,VALID,23.0751,VALID,106,VALID,0.0972656,
2011-03-08, 03:43:04,VALID,999.512,VALID,0,VALID,91.9903,VALID,0,VALID,23.0981,VALID,106,VALID,0.320703,
2011-03-08, 03:44:04,VALID,999.54,VALID,0,VALID,91.9827,VALID,0,VALID,23.0964,VALID,106,VALID,0.391016,
2011-03-08, 03:45:04,VALID,999.584,VALID,0,VALID,91.998,VALID,0,VALID,23.0964,VALID,106,VALID,0.491016,